Location: Poughquag
(41.6090°N, 73.6820°W)
Time: 23:15:52
(UTC-04:00)

X-37B - Pass Details

Date: 11 June 2023
Orbit: 277 x 277 km, 45.0° (Epoch: 01 November)

Event Time Altitude Azimuth Distance (km) Brightness Sun altitude
Exits shadow 04:14:26 18° 248° (WSW) 769 1.5 -10.5°
Maximum altitude 04:16:05 87° 158° (SSE) 281 -0.2 -10.2°
Drops below altitude 10° 04:18:32 10° 70° (ENE) 1,101 4.1 -9.9°
Sets 04:20:27 0° 70° (ENE) 1,916 5.5 -9.7°
